Regional Weather Roundup
Issued by NWS

Home | Current Version | Previous Version | Graphics & Text | Print | Product List | Glossary On
Versions: 1 2 3 4 5 6 7 8 9 10 11 12 13 14 15 16 17 18 19 20 21 22 23 24 25 26 27 28 29 30 31 32 33 34 35 36 37 38 39 40 41 42 43 44 45 46 47 48 49 50
000
ASUS45 KCYS 081510
RWRWY

WYOMING REGIONAL WEATHER ROUNDUP
NATIONAL WEATHER SERVICE CHEYENNE WY
800 AM MST MON FEB 08 2016

NOTE:  "FAIR" INDICATES FEW OR NO CLOUDS BELOW 12,000 FEET
WITH NO SIGNIFICANT WEATHER AND/OR OBSTRUCTIONS TO VISIBILITY.

WYZ001-081600-
YELLOWSTONE NATIONAL PARK

CITY           SKY/WX    TMP DP  RH WIND       PRES   REMARKS
LK YELLOWSTONE   N/A      7   3  84 CALM      30.62R
W YELLOWSTONE  NOT AVBL

$$
WYZ002>013-054>058-071-098>099-081600-
NORTHERN WYOMING

CITY           SKY/WX    TMP DP  RH WIND       PRES   REMARKS
JACKSON        CLEAR      5   3  92 VRB7      30.63R WCI  -7
CODY           FAIR      23  12  63 CALM      30.42F
GREYBULL       FAIR      20  16  84 E3        30.48R
WORLAND        FAIR      20  16  84 S7        30.47R WCI  11
SHERIDAN       CLOUDY    29  20  69 W3        30.43R
BUFFALO        FAIR      25  12  58 CALM      30.40R
GILLETTE       FAIR      23  11  60 W14       30.40R WCI  11
HULETT         CLOUDY    28  10  47 W6        30.41R WCI  22
NEWCASTLE      FAIR      27   5  39 NW17      30.34S WCI  14

$$
WYZ014>020-022>026-101>103-081600-
CENTRAL WYOMING

CITY           SKY/WX    TMP DP  RH WIND       PRES   REMARKS
BIG PINEY      FAIR      23  16  74 N16       30.54R WCI  10
PINEDALE       PTSUNNY   32  21  64 W28G35    30.51R WCI  18
DUBOIS         FAIR      32  21  64 W29G36    30.47F WCI  18
LANDER         FAIR      18  10  71 W3        30.46R
RIVERTON       FAIR      13   8  81 NE3       30.47R
CASPER         FAIR      24  13  62 SW13      30.43R WCI  12
DOUGLAS        MOCLDY    24  15  68 NW14        N/A  WCI  12

$$
WYZ021-027>030-104>119-081600-
SOUTHERN WYOMING

CITY           SKY/WX    TMP DP  RH WIND       PRES   REMARKS
EVANSTON       FAIR      22  14  71 SW3       30.62R
FORT BRIDGER   SUNNY     30  19  64 W21       30.62R WCI  17
ROCK SPRINGS   FAIR      26  16  65 SW23      30.53R WCI  11
DIXON          FAIR      10   5  80 NE3       30.58R
RAWLINS        FAIR      23  14  68 W15       30.48R WCI  10
SARATOGA       FAIR      28  19  69 W16       30.48R WCI  17
LARAMIE          N/A     28  18  66 NW10      30.39R WCI  19
CHEYENNE       FAIR      34  18  52 N21G29    30.34R WCI  22
TORRINGTON     CLOUDY    27  14  58 W6        30.40R WCI  20
PINE BLUFFS    FAIR      25  16  68 NW10      30.37S WCI  15

$$



USA.gov is the U.S. government's official web portal to all federal, state and local government web resources and services.